Location: Clairmont
(55.2667°N, 118.8000°W)
Time: 14:56:23
(UTC+00:00)

Envisat - Pass Details

Date: 01 November 2020
Orbit: 764 x 766 km, 98.1° (Epoch: 03 December)

Event Time Altitude Azimuth Distance (km) Brightness Sun altitude
Rises 01:50:28 0° 196° (SSW) 3,225 6.5 -13.6°
Reaches altitude 10° 01:53:03 10° 208° (SSW) 2,303 5.9 -13.9°
Maximum altitude 01:57:27 29° 268° (W) 1,386 5.2 -14.5°
Drops below altitude 10° 02:01:52 10° 328° (NNW) 2,317 5.9 -15.2°
Sets 02:04:29 0° 339° (NNW) 3,248 6.5 -15.5°
